DELTA 1 DEB, 10478

Orbit data source: Space-Track

DELTA 1 DEB, 10478 is space debris in LEO originally from a launch on Thu, 14 Jul 1977 UTC launched from the Air Force Eastern Test Range (AFETR). Debris objects in space refer to the collection of defunct objects orbiting the Earth. Examples of debris include non-operational satellites, rocket bodies, and fragments generated from explosions, collisions, or faulty payload assembly.

Loading next visibility...
Identifier
10478, 1977-065EL
Orbit
LEO
Country
Flag of USUS
Related business
Manufacturer
Unknown
Mission
Spacecraft
Bus & Motor
Unknown
Mass
Unknown
Launch date (UTC)
1977-07-14 (48 years ago)
Launch vehicle
Unknown
Launch site
Air Force Eastern Test Range (AFETR)
Object type
Payload
Rocket body
Debris
Shape & HBR
Unknown shape, 0.1 m
Radar Cross Section
Small (<0.1 m²)

Expand to show TLE details & history
Last TLE update: 18 hours ago

TLE from 18 hours ago
0 DELTA 1 DEB
1 10478U 77065EL  25304.52984042  .00016197  00000-0  20509-2 0  9995
2 10478  29.2521 128.2281 0439984 171.0189 189.8576 14.30428420404832
Epoch: 2025-10-31T12:42Z
TLE epoch observation values (Epoch: 2025-10-31T12:42:58.212Z)
Latitude
0.00001°
Longitude
-102.58739°
Altitude
1,099.735 km
Speed
7.145 km/s
True Right ascension
08h 32m 54s
True Declination
0° 00' 00"
Sunlit
Object was in daylight at epoch
Visualization orbit readout
Latitude
Unknown
Longitude
Unknown
Altitude
Unknown
Speed
Unknown
Apparent Right ascension
Unknown
Apparent Declination
Unknown
Sunlit
N/A
Visualization observer readout
Local Sidereal Time
02:36:19
Azimuth
Unknown
Elevation
Unknown
Doppler factor
Unknown
Orbital elements
Apogee altitude
1,109.834 km
Perigee altitude
478.686 km
Semi-major axis
7,172.397 km
Eccentricity
0.044
Inclination
29.2521°
RAAN
128.2281°
Arg. of periapsis
171.0189°
True anomaly
189.03892°
Mean anomaly
189.8576°
Eccentric anomaly
189.44396°
Mean motion
3.57311 °/min
Orbital period
100.75 mins
BSTAR
0.0020509
Loading maneuver chart data...
Computing Atmospheric mass density...
Loading historical data...
Loading historical data...
Loading historical data...
Loading historical data...
Loading historical data...
Loading historical data...
Loading historical data...

Documentation

Showing up to 5 results
|